Weather Roundup
Issued by NWS

Home | Current Version | Previous Version | Graphics & Text | Print | Product List | Glossary Off
Versions: 1 2 3 4 5 6 7 8 9 10 11 12 13 14 15 16 17 18 19 20 21 22 23 24 25 26 27 28 29 30 31 32 33 34 35 36 37 38 39 40 41 42 43 44 45 46 47 48 49 50

272
NZUS93 KARX 021910
HRRWXR

CURRENT HOURLY OBSERVATIONS ACROSS
MUCH OF THE UPPER MISSISSIPPI VALLEY
NATIONAL WEATHER SERVICE LA CROSSE WI
100 PM CST FRI DEC 02 2016


...SOUTHEAST MINNESOTA...


CITY           SKY/WX    TMP DP  RH WIND       PRES   REMARKS
ROCHESTER      CLOUDY    30  23  75 NW12      30.22R WCI  20
ROCHESTER/MAYO CLOUDY    32  23  70 W9        30.23R WCI  24
WINONA         CLOUDY    34  23  64 N3        30.24S
AUSTIN         CLOUDY    30  23  74 NW10      30.23S WCI  21
ALBERT LEA     CLOUDY    34  27  75 NW8       30.24R WCI  27
DODGE CENTER   CLOUDY    30  23  74 W8        30.22R WCI  23
PRESTON        CLOUDY    30  22  74 N9        30.22R WCI  21
OWATONNA       CLOUDY    30  21  69 W9        30.24R WCI  22
FARIBAULT      CLOUDY    30  23  74 W9        30.24S WCI  22
$$

...ELSEWHERE IN MINNESOTA...


CITY           SKY/WX    TMP DP  RH WIND       PRES   REMARKS
MINNEAPOLIS    CLOUDY    33  23  66 NW10      30.23S WCI  25
INTNL FALLS    CLOUDY    26  22  84 W8        30.19S WCI  18
DULUTH         CLOUDY    27  22  81 NW10      30.17R WCI  17
RED WING       CLOUDY    34  21  60 W6        30.22S WCI  29
REDWOOD FALLS  CLOUDY    30  20  66 NW6       30.26F WCI  24
MANKATO        CLOUDY    29  22  75 NW8       30.26R WCI  21
WORTHINGTON    CLOUDY    31  23  72 NW15      30.25S WCI  20
FAIRMONT       CLOUDY    31  25  78 NW13      30.26R WCI  21
$$

...SOUTHWEST WISCONSIN...


CITY           SKY/WX    TMP DP  RH WIND       PRES   REMARKS
LA CROSSE      CLOUDY    35  24  64 NW12      30.23R WCI  27
PRAIRIE DU CHI CLOUDY    34  22  62 W10       30.24S WCI  26
BOSCOBEL       CLOUDY    35  22  58 W9        30.24R WCI  28
LONE ROCK      CLOUDY    34  22  61 NW9       30.22R WCI  27
PLATTEVILLE    CLOUDY    34  27  76 W9        30.21S WCI  26
FORT MC COY    CLOUDY    32  24  70 NW7       30.22S WCI  26
CAMP DOUGLAS   CLOUDY    32  24  71 NW7       30.19S WCI  26
MAUSTON-NEW LI CLOUDY    32  24  71 NW9       30.20R WCI  24
VIROQUA        CLOUDY    31  24  76 W8        30.20R WCI  24
WIS DELLS      CLOUDY    32  22  67 NW9       30.19R WCI  24
$$

...ELSEWHERE IN WISCONSIN...


CITY           SKY/WX    TMP DP  RH WIND       PRES   REMARKS
MILWAUKEE      CLOUDY    37  23  56 NW12      30.16S WCI  29
MADISON        CLOUDY    33  23  66 NW6       30.19R WCI  28
GREEN BAY      CLOUDY    37  29  72 NW13      30.15R WCI  29
EAU CLAIRE     CLOUDY    32  23  69 NW5       30.21R WCI  27
BLACK RVR FLS  CLOUDY    33  21  62 W6        30.21S WCI  27
MEDFORD        CLOUDY    30  23  76 W6        30.15S WCI  24
WAUSAU         CLOUDY    32  24  72 W9        30.15R WCI  24
WIS RAPIDS     CLOUDY    32  23  69 NW9       30.20R WCI  24
MARSHFIELD     CLOUDY    30  21  69 W10       30.17R WCI  21
RICE LAKE      CLOUDY    31  24  76 NW5       30.21S WCI  26
$$

...NORTHEAST IOWA...


CITY           SKY/WX    TMP DP  RH WIND       PRES   REMARKS
WATERLOO       CLOUDY    33  24  69 W12       30.25R WCI  24
DUBUQUE        CLOUDY    34  26  72 NW10      30.22R WCI  26
DECORAH        CLOUDY    32  25  74 VRB7      30.21S WCI  26
MASON CITY     CLOUDY    31  23  72 N13       30.26S WCI  21
CHARLES CITY   CLOUDY    32  25  74 NW8G15    30.25R WCI  25
OELWEIN        CLOUDY    32  27  80 W12       30.24S WCI  23
$$

...ELSEWHERE IN IOWA...


CITY           SKY/WX    TMP DP  RH WIND       PRES   REMARKS
DES MOINES     CLOUDY    40  31  70 NW3       30.26S
IOWA CITY      CLOUDY    40  27  59 NW13G24   30.26S WCI  32
FORT DODGE     CLOUDY    37  28  70 NW6       30.25F WCI  33
MARSHALLTOWN   CLOUDY    37  29  72 NW13      30.24S WCI  29
CEDAR RAPIDS   CLOUDY    36  29  75 NW15      30.23S WCI  27
$$

...NORTHERN ILLINOIS...


CITY           SKY/WX    TMP DP  RH WIND       PRES   REMARKS
CHICAGO-OHARE  CLOUDY    39  27  62 N12       30.17R WCI  32
CHICAGO-MIDWAY CLOUDY    40  31  70 W7        30.18R
MOLINE         CLOUDY    41  30  65 NW9       30.22F
ROCKFORD       CLOUDY    38  28  67 NW9       30.22R WCI  31
PEORIA         CLOUDY    41  32  70 W9        30.23S
$$

NOTE: "FAIR" INDICATES FEW OR NO CLOUDS BELOW 12,000 FEET WITH NO
SIGNIFICANT WEATHER AND/OR OBSTRUCTIONS TO VISIBILITY. WIND
SPEEDS ARE IN MILES-PER-HOUR.




USA.gov is the U.S. government's official web portal to all federal, state and local government web resources and services.